Content
SEND FEEDBACK

Daily
Averages
Monthly
Summary
Ireland

CLAREMORRIS, IRELAND


Home > Europe > Ireland
Elevation: 226 feet     Latitude: 53 43N     Longitude: 008 59W

WEATHER
 
SELECT A DAY
Number of Records: 188,902;   Date Range: 5/30/97 - 7/30/14
 
SHARE

PRINT THIS DATA

[ ← Previous Day ]
WEATHER ALMANAC - OCTOBER 15, 2013
[ Next Day → ]
[ °C ]   °F
Weather ElementAverageHighLow
Temperature48.7 °F55.4 °F (3:30 pm)41 °F (8:00 am)
Dewpoint43.7 °F46.4 °F (12:00 pm)41 °F (7:30 am)
Humidity83.2 %100 % (7:00 am)67 % (1:00 pm)
Barometer29.85 in29.88 in (1:00 pm)29.83 in (7:00 am)
Wind Speed11.2 mph13.8 mph (1:30 pm)
Weather ElementAverage
Visibility6.4 mi
Wind DirectionESE (117.3 °)

Weather ElementTotal
Precipitation---
Heating Degree Days16.8 (Base 65)
Averaged from 26 records on October 15, 2013
WEATHER CONDITIONS BREAKOUT
WIND DIRECTION BREAKOUT
WEATHER BY HOUR - OCTOBER 15, 2013
[ °C ]   °F
Local TimeTemperatureDewpointHumidityBarometerVisibilityWind DirectionWind SpeedGust SpeedPrecipitationEventsConditions
7:00 AM43.0 °F43.0 °F98 %29.86 in3.0 miEast (100°)11.2 mphFogLight Fog
7:00 AM42.8 °F42.8 °F100 %29.83 in2.8 miEast (100°)10.4 mphPartly Cloudy
7:30 AM42.8 °F41.0 °F93 %29.83 in1.5 miESE (110°)9.2 mphFogFog
8:00 AM41.0 °F41.0 °F100 %29.83 in0.2 miEast (100°)10.4 mphFogFog
8:30 AM41.0 °F41.0 °F100 %29.86 in4.3 miEast (100°)9.2 mphPartly Cloudy
9:00 AM42.8 °F41.0 °F93 %29.86 in5.0 miEast (100°)10.4 mphPartly Cloudy
9:30 AM42.8 °F42.8 °F100 %29.86 in5.0 miESE (110°)9.2 mphPartly Cloudy
10:00 AM44.6 °F42.8 °F93 %29.86 in5.0 miESE (110°)10.4 mphPartly Cloudy
10:30 AM44.6 °F42.8 °F93 %29.86 in1.1 miSE (130°)9.2 mphFogFog
11:00 AM46.4 °F44.6 °F93 %29.86 in3.7 miSE (130°)9.2 mphPartly Cloudy
11:30 AM48.2 °F44.6 °F87 %29.86 in6.2 miESE (110°)9.2 mphPartly Cloudy
12:00 PM50.0 °F46.4 °F87 %29.86 in6.2 miSE (130°)10.4 mphScattered Clouds
12:30 PM50.0 °F44.6 °F82 %29.86 in6.2 miESE (110°)12.7 mphScattered Clouds
1:00 PM53.6 °F44.6 °F72 %29.86 in6.2 miSE (130°)12.7 mphPartly Cloudy
1:00 PM53.0 °F45.0 °F67 %29.88 in22.0 miSE (130°)13.4 mphPartly Cloudy
1:30 PM51.8 °F44.6 °F76 %29.86 in6.2 miSE (130°)13.8 mphPartly Cloudy
2:00 PM53.6 °F42.8 °F67 %29.86 in6.2 miESE (120°)12.7 mphPartly Cloudy
2:30 PM53.6 °F44.6 °F72 %29.86 in6.2 miESE (110°)11.5 mphPartly Cloudy
3:00 PM53.6 °F44.6 °F72 %29.86 in6.2 miESE (120°)12.7 mphScattered Clouds
3:30 PM55.4 °F44.6 °F67 %29.83 in6.2 miESE (120°)12.7 mphScattered Clouds
4:00 PM55.4 °F44.6 °F67 %29.83 in6.2 miSE (130°)11.5 mphPartly Cloudy
4:30 PM53.6 °F44.6 °F72 %29.83 in6.2 miESE (120°)12.7 mphScattered Clouds
5:00 PM53.6 °F44.6 °F72 %29.83 in6.2 miESE (120°)11.5 mphScattered Clouds
5:30 PM51.8 °F44.6 °F76 %29.83 in6.2 miSE (130°)11.5 mphScattered Clouds
6:00 PM50.0 °F44.6 °F82 %29.83 in6.2 miSE (130°)11.5 mphScattered Clouds
7:00 PM48.0 °F44.0 °F83 %29.85 in25.0 miESE (120°)11.2 mphScattered Clouds
Hourly data recorded from EIKN, located miles away from Claremorris, Ireland







STORIES FROM OUR PARTNERS